Vertical_Velocity
1 2 3 3 3 3 2 1 0 -0 -2 -3 -1 -1 -1 -0 -0 -1 -1 -4 -4 -6
2 5 5 5 1 -1 0 -10 1 -2 3 -5 -5 -3 -1 -3 -5 -5 -8 -4 -2 -1
6 4 4 3 1 4 4 -5 -2 -2 -2 2 1 -5 -5 -4 -4 -5 -4 -4 -2 -2
5 1 2 2 2 1 5 1 -4 1 3 1 3 3 3 -2 -5 -3 -4 -6 -6 1
4 3 0 -1 3 6 4 1 0 2 -6 -1 -3 0 1 -1 -1 2 -3 -4 -3 1
5 2 -2 -0 6 1 -1 5 1 2 -1 4 3 -2 -4 -4 -0 3 -0 -4 -7 0
7 -1 3 2 3 0 -1 -1 -0 -0 -1 6 3 3 -6 1 -1 0 -2 -7 1 -4
-1 1 3 -1 -4 -4 -2 -4 -3 -1 -3 0 -1 1 1 3 0 -0 4 -0 5 -3
-1 -1 -4 -4 -2 3 6 1 -12 -11 -2 4 -4 -3 3 -2 1 -3 -1 0 4 1
-4 -4 -4 -1 5 3 -2 -9 -6 -6 -4 -1 -1 -5 -4 -0 -2 -0 -8 6 -1 -3
6 9 -1 13 1 -5 -5 -6 -5 -4 -0 -4 -1 -0 -1 6 2 1 -2 2 -4 -1
10 3 15 18 5 -2 -6 -2 1 -2 0 0 -0 -4 0 5 3 -6 5 1 -3 -5
0 13 11 -8 -5 2 1 2 0 0 -3 -1 1 2 -2 -2 -4 5 3 -0 -0 -4
17 16 -5 -0 -14 -17 -5 -4 5 5 -0 -0 0 1 -1 -3 2 2 -4 -3 -2 -2
Height
3135 3134 3131 3129 3127 3123 3119 3114 3109 3106 3101 3093 3089 3085 3081 3076 3070 3064 3059 3054 3050 3044
3129 3128 3126 3123 3119 3114 3109 3104 3100 3096 3092 3085 3080 3075 3070 3065 3059 3055 3049 3044 3039 3035
3123 3121 3117 3114 3110 3106 3102 3095 3092 3088 3082 3077 3073 3067 3062 3056 3049 3044 3039 3035 3032 3031
3114 3111 3108 3105 3101 3098 3091 3087 3082 3078 3072 3068 3063 3059 3054 3048 3042 3036 3033 3030 3027 3024
3105 3103 3100 3096 3093 3088 3082 3078 3074 3068 3064 3060 3056 3051 3046 3039 3034 3030 3026 3023 3021 3018
3097 3094 3090 3086 3081 3076 3071 3068 3064 3061 3057 3052 3047 3043 3037 3032 3028 3023 3019 3015 3013 3011
3088 3084 3080 3075 3071 3065 3061 3059 3057 3054 3050 3045 3039 3036 3031 3026 3022 3018 3013 3010 3005 3002
3078 3074 3069 3065 3060 3057 3053 3051 3049 3046 3043 3037 3034 3029 3025 3021 3016 3013 3008 3004 2999 2996
3069 3064 3060 3055 3050 3048 3047 3043 3040 3039 3034 3030 3025 3022 3019 3015 3011 3007 3003 2998 2993 2989
3060 3055 3049 3046 3043 3041 3038 3035 3033 3030 3028 3023 3018 3015 3011 3009 3005 3001 2996 2992 2987 2983
3051 3046 3040 3036 3035 3034 3032 3028 3026 3025 3020 3016 3011 3008 3005 3002 2998 2994 2990 2984 2980 2975
3041 3035 3030 3033 3032 3030 3026 3023 3021 3017 3013 3010 3006 3002 2998 2995 2991 2986 2983 2979 2973 2970
3031 3025 3027 3028 3027 3024 3021 3018 3013 3009 3006 3003 2999 2995 2992 2988 2984 2980 2976 2972 2967 2963
3025 3022 3024 3022 3019 3018 3014 3010 3007 3002 3000 2996 2993 2988 2985 2980 2977 2974 2971 2967 2962 2957